Terminal Aerodrome Forecast
Issued by NWS Blacksburg, VA

Current Version | Previous Version | Graphics & Text | Print | Product List | Glossary On
Versions: 1 2 3 4 5 6 7 8 9 10 11 12 13 14 15 16 17 18 19 20 21 22 23 24 25 26 27 28 29 30
497
FTUS41 KRNK 081627 AAA
TAFBLF
TAF AMD
KBLF 081627Z 0816/0912 21005KT P6SM -RASN SCT030 OVC050
     FM081700 18007KT 2SM -SN BR SCT012 OVC020
      TEMPO 0817/0819 1SM -SN BR OVC012
     FM081900 25007KT P6SM SCT012 OVC025
     FM082200 27012G22KT 5SM -SHSN BR OVC015
     FM090200 28014G24KT 1 1/2SM -SHSN BR OVC005=

USA.gov is the U.S. government's official web portal to all federal, state and local government web resources and services.